Dewpoint
-12 -13 -10 -10 -10 -10 -8 -7 -5 -4 -5 -5 -5 -5 -6 -7 -6 -3 -3 -2 -1 -0 -1 -1 0 2 4 3 4 6 6 6 5 5 4 2 3 3 3 3 3 2 3 2 4
-10 -10 -9 -10 -10 -10 -10 -10 -9 -8 -6 -5 -5 -5 -6 -7 -8 -3 -4 -2 -2 -1 -0 -0 1 2 3 4 5 5 6 5 2 2 3 2 3 4 4 3 3 3 0 2 4
-10 -8 -8 -8 -9 -10 -9 -9 -9 -9 -9 -8 -7 -7 -7 -8 -7 -5 -4 -2 -2 -1 0 2 2 3 4 4 5 4 6 3 3 2 3 4 4 4 4 4 3 3 2 0 1
-14 -13 -12 -10 -8 -8 -9 -9 -8 -8 -8 -9 -9 -9 -8 -8 -7 -4 -4 -4 -1 -1 0 2 2 3 4 5 4 6 4 4 4 4 4 4 4 4 4 4 2 1 -0 0 1
-14 -16 -16 -14 -13 -9 -9 -9 -9 -9 -9 -9 -9 -9 -9 -8 -9 -4 -3 -4 -2 -0 0 2 2 3 4 4 4 4 3 3 3 3 4 3 4 4 4 1 0 2 1 -0 0
-18 -18 -19 -18 -14 -10 -9 -9 -9 -8 -8 -8 -8 -8 -8 -6 -8 -4 -3 -4 -3 0 1 2 3 3 4 4 4 3 4 4 4 4 4 4 4 4 3 -0 2 2 1 1 1
-19 -19 -19 -19 -20 -13 -12 -10 -9 -9 -8 -7 -8 -8 -8 -10 -9 -5 -2 -3 -3 -0 3 4 4 5 4 4 4 4 5 4 3 3 4 4 4 5 0 1 1 2 1 0 -0
-19 -19 -19 -19 -20 -21 -14 -16 -13 -10 -8 -6 -8 -9 -9 -9 -6 -5 -1 -2 -2 -1 3 5 5 6 6 5 4 4 3 4 0 2 2 4 5 1 -0 1 1 1 0 0 -0
-19 -19 -19 -20 -21 -22 -19 -19 -16 -10 -7 -5 -7 -7 -7 -5 -5 -3 -1 -1 -1 0 3 5 5 6 5 4 2 1 5 4 3 2 3 3 3 1 -1 0 1 1 -0 0 -1
-18 -19 -19 -19 -20 -21 -22 -20 -17 -12 -3 -5 -3 -1 -4 -4 -3 -4 -2 0 1 2 4 6 5 4 3 3 4 3 4 4 4 2 2 3 3 1 0 0 1 1 -0 -0 -1
-17 -18 -18 -17 -18 -17 -20 -19 -13 -10 -7 -11 -11 -6 -5 -4 -3 -2 -1 0 3 4 4 5 5 4 0 2 2 3 4 5 3 2 3 3 3 2 0 0 1 1 1 0 -0
-18 -18 -19 -20 -18 -16 -15 -14 -8 -8 -3 -10 -5 -3 -3 -2 -4 -3 -0 1 4 3 4 2 4 1 1 2 3 3 5 4 2 1 3 3 3 0 -1 -0 0 0 0 -1 -1
-27 -24 -21 -20 -23 -21 -12 -10 -8 -2 0 -6 -3 -3 -4 -5 -4 -4 -1 2 2 2 3 1 -3 1 2 2 4 4 4 3 4 3 2 3 1 -0 -2 -1 -1 -1 -0 -0 -0
-36 -36 -36 -32 -21 -18 -17 -7 -8 -2 -2 -5 -2 -2 -2 -2 -4 -2 0 0 0 1 -0 1 -1 1 2 3 3 4 2 3 4 5 6 2 4 1 -1 -2 -2 -4 -3 -4 -3
-37 -37 -37 -37 -34 -27 -9 -6 -4 -2 -6 -8 -4 -3 -2 -3 -4 -1 2 2 1 -2 -3 -3 -3 2 3 3 2 2 2 3 4 5 4 3 4 1 -1 -2 -3 -4 -4 -4 -2
-37 -37 -37 -33 -30 -16 -6 -5 -1 -3 -7 -8 -5 -4 -4 -3 -3 1 3 2 1 1 -0 -1 -2 -1 0 -0 2 2 2 1 2 3 4 2 3 2 0 -2 -2 -3 -2 -2 -1
-37 -35 -17 -13 -10 -2 -3 -1 -3 -3 -10 -8 -7 -4 -4 -3 -3 0 1 1 0 -3 -4 -4 -2 -2 -1 0 1 2 1 3 2 3 3 2 3 3 -1 -1 -1 -1 -1 -1 -1
-36 -14 -2 0 -2 -2 -2 -6 -7 -7 -10 -6 -6 -5 -4 -4 -5 -2 -1 -2 -2 -4 -2 -0 -1 -2 -1 -1 -2 3 1 2 2 4 3 2 4 2 -2 -2 -3 -3 -1 -1 0
-31 -5 1 1 1 -0 1 -4 -5 -5 -3 -2 -5 -8 -8 -4 -4 -6 -3 -3 -5 -3 -1 -2 -3 -4 -1 -2 -2 0 3 0 3 2 4 4 2 -1 -4 -4 -4 -3 -2 -1 -0
-26 -2 0 -0 -1 -0 -1 -1 -6 -2 -2 -4 -3 -7 -5 -6 -6 -7 -7 -4 -2 -4 -4 -3 -2 -6 -4 -2 -2 -1 -2 2 2 4 4 3 3 4 -1 -4 -4 -3 -2 -2 -1
-19 -1 -2 -1 -1 0 -1 -1 -0 -1 -3 -1 -2 -2 -4 -4 -5 -5 -7 -2 -2 -2 -4 -4 -3 -3 -4 -2 -2 0 1 -0 -0 2 3 3 4 1 -2 -2 -3 -3 -3 -3 -2
-21 -5 -4 -1 -2 -2 -1 -2 -2 -2 -6 -1 -1 -0 0 -0 -1 -5 -5 -1 -5 -2 -1 -3 -3 -1 -4 -6 -4 -2 -1 -1 1 -0 1 1 1 -4 -3 -3 -3 -3 -5 -6 -4
-9 -6 -11 -5 -3 -3 -4 -4 -3 -4 -7 -4 -4 -4 -4 -1 1 -1 -1 -2 -7 -3 -3 0 0 0 -2 -5 -3 -2 -2 -2 -2 -1 1 2 -1 -6 -6 -6 -8 -7 -8 -7 -7
-11 -9 -18 -11 -4 -3 -4 -3 -3 -6 -7 -8 -6 -6 -5 -5 -3 -4 -4 -4 -8 -9 -5 -1 -0 -0 1 -2 -3 -2 -2 -2 -2 1 -1 -1 -3 -5 -6 -7 -8 -8 -8 -7 -7
-19 -5 -6 -6 -7 -5 -7 -5 -4 -6 -8 -7 -5 -6 -5 -3 -8 -6 -7 -6 -8 -9 -3 -2 2 -1 -2 -1 0 0 0 -0 -1 -1 0 -1 -2 -4 -6 -6 -7 -7 -7 -7 -6
-15 -9 -7 -7 -6 -6 -6 -6 -7 -7 -7 -7 -4 -6 -6 -4 -6 -4 -5 -6 -7 -6 -7 -8 -5 -4 -6 -5 -3 -2 -2 -1 -1 -1 -1 -2 -1 -5 -6 -6 -5 -6 -6 -6 -4
-11 -9 -5 -7 -7 -9 -6 -7 -8 -6 -8 -7 -6 -6 -6 -7 -6 -6 -6 -6 -7 -8 -9 -7 -6 -5 -10 -13 -10 -4 -7 -6 -4 -4 -3 -2 -3 -2 -2 -3 -3 -3 -4 -6 -5
Wind_Speed
10 9 9 9 9 11 13 13 13 13 14 14 14 15 16 17 14 9 11 11 11 10 9 7 6 4 3 3 1 1 1 3 4 3 4 3 2 7 11 14 18 17 13 14 26
13 11 12 11 11 11 12 14 15 16 16 16 16 16 17 17 16 6 10 11 10 9 8 7 7 6 2 2 1 2 2 5 5 3 5 8 7 13 12 17 16 25 26 17 24
14 14 14 14 14 13 13 13 14 15 16 18 17 17 17 17 14 2 9 10 9 8 8 7 7 5 2 0 2 2 4 3 10 16 16 12 14 12 13 15 19 22 29 24 22
17 17 17 16 16 16 14 13 13 13 14 14 15 16 15 13 2 3 7 8 8 8 7 7 5 2 1 1 2 3 11 14 14 16 14 13 12 13 19 27 31 29 28 30 24
17 18 19 19 17 16 15 15 14 14 14 13 13 13 11 7 7 5 6 7 7 6 5 5 3 2 1 3 4 5 6 11 17 25 21 22 21 16 20 34 33 32 29 30 26
16 17 19 21 20 17 15 17 17 16 16 14 12 11 9 5 6 6 6 6 6 4 3 3 2 3 3 4 2 4 11 20 18 22 13 11 12 7 20 22 25 25 26 23 18
16 17 18 19 21 19 19 20 20 19 14 13 12 10 12 13 8 8 6 6 6 5 4 4 3 2 3 3 5 8 8 8 3 2 5 4 7 8 14 15 18 17 19 19 19
17 18 19 20 21 21 19 21 22 17 14 11 9 8 7 8 9 10 9 8 7 6 6 6 6 6 4 6 4 4 2 5 3 3 3 3 10 7 20 16 19 14 17 17 15
19 20 20 21 22 22 22 23 23 17 12 8 7 6 6 6 8 9 10 8 7 7 6 7 6 3 1 2 3 3 4 4 8 3 4 3 16 15 19 18 20 27 28 22 20
22 22 23 23 23 24 23 23 19 17 8 7 8 5 7 4 5 6 7 9 6 4 4 3 1 1 1 2 3 5 5 5 8 4 4 15 22 21 23 19 25 28 30 25 22
23 24 24 24 24 23 22 20 9 6 9 15 13 9 3 6 5 5 7 6 6 3 3 1 1 6 7 6 4 3 4 10 13 11 6 11 18 23 22 16 19 23 27 28 26
26 26 25 24 24 22 19 11 9 9 15 21 21 23 18 9 5 8 8 6 5 4 3 2 8 7 4 3 4 5 5 8 11 2 4 10 21 14 7 5 10 18 24 25 25
27 28 27 24 22 19 10 11 12 13 5 9 4 4 5 13 6 5 10 5 4 3 5 6 2 3 4 3 4 4 5 4 7 8 3 11 7 5 4 6 9 12 17 18 22
29 28 27 26 15 9 14 9 11 12 4 6 1 1 3 4 2 5 9 2 1 3 3 6 3 3 3 5 6 4 5 6 5 5 4 5 5 5 5 11 2 5 6 12 19
28 28 26 22 17 10 7 6 8 5 5 2 1 1 1 3 1 2 8 4 4 3 3 7 2 4 5 6 6 7 2 4 1 2 2 1 0 8 4 5 6 6 5 11 14
29 27 23 17 10 7 5 3 3 6 6 2 2 2 2 1 1 2 2 5 2 1 4 8 3 3 5 2 5 4 3 2 2 1 1 2 2 6 3 4 7 7 14 13 15
28 23 17 12 5 0 1 1 5 4 4 5 2 1 1 2 2 3 3 2 4 3 3 4 4 3 4 2 2 1 3 3 4 3 3 2 1 9 9 8 5 10 20 16 16
27 15 11 11 5 2 3 4 3 3 4 4 4 3 4 3 1 1 0 4 4 1 2 1 6 5 4 4 2 3 3 3 4 2 4 2 4 6 4 8 16 11 13 11 14
22 8 12 11 6 1 0 3 3 3 6 8 9 3 3 0 1 2 4 3 1 6 5 2 5 1 3 2 4 3 3 2 1 2 1 3 6 9 3 5 5 9 11 13 14
17 3 16 10 5 1 3 2 2 7 7 3 3 4 4 6 6 3 2 7 7 1 0 4 5 2 0 3 2 4 4 1 1 3 4 4 4 5 7 8 8 8 11 16 15
10 2 17 8 3 2 3 2 4 10 19 8 5 6 4 4 4 3 3 4 7 8 4 3 3 4 1 5 6 2 2 2 2 3 3 4 5 6 7 9 6 9 16 17 18
8 4 20 5 4 4 3 5 12 11 20 7 5 6 4 7 5 3 5 4 19 11 4 4 1 4 8 3 2 3 5 5 3 3 2 2 9 7 7 6 5 14 27 31 22
6 5 15 6 4 3 6 4 6 9 7 7 7 5 5 5 5 5 5 4 28 9 8 6 3 4 8 2 1 2 3 3 2 2 6 3 8 1 2 11 23 20 30 31 30
8 4 11 16 8 3 4 4 5 8 3 7 5 6 5 5 4 6 6 4 24 16 19 6 4 7 9 7 2 6 4 2 3 4 6 18 23 24 24 19 21 33 32 30 27
9 4 6 4 6 6 3 5 4 8 6 11 3 9 5 4 6 2 3 7 12 13 8 4 5 4 7 5 6 11 14 11 14 16 12 24 24 24 25 23 30 35 35 29 23
6 6 6 4 6 6 6 5 5 5 3 2 3 8 6 4 6 12 7 2 6 5 7 4 5 5 22 14 16 24 21 15 17 19 19 19 27 20 22 24 28 33 32 29 24
12 7 3 4 6 4 2 4 4 8 5 6 7 7 7 7 10 20 28 28 26 18 15 4 3 3 9 5 10 14 17 23 17 5 6 8 7 16 19 21 30 37 34 31 27
Wind_Direction
358 353 346 333 315 303 299 298 298 300 305 312 320 329 336 342 346 334 360 0 10 13 15 14 11 2 18 50 47 79 17 252 253 205 247 265 316 300 308 289 291 276 254 301 323
25 18 6 355 343 332 316 301 294 293 295 299 306 315 322 331 335 304 353 3 7 7 11 16 14 21 66 52 65 135 224 240 222 229 255 277 280 295 297 288 288 294 278 278 335
17 8 360 355 350 343 332 321 314 303 294 292 297 303 311 322 329 299 354 357 360 7 12 11 3 11 66 22 188 181 231 239 262 270 280 281 284 278 277 273 275 276 284 295 309
12 9 3 355 348 344 342 336 329 319 310 300 295 297 303 314 311 293 343 350 354 4 11 5 351 18 15 261 215 262 249 258 279 285 287 282 287 268 254 264 280 277 275 282 290
8 7 3 359 353 347 345 342 335 325 314 307 301 299 300 289 270 262 320 339 341 349 3 357 7 355 273 260 290 223 266 278 282 287 279 277 260 257 268 271 275 275 272 273 281
1 2 2 0 357 349 342 339 334 327 315 304 296 292 284 252 242 242 289 315 318 322 332 333 319 299 259 244 207 266 280 287 290 282 270 262 269 199 259 275 275 266 267 271 264
350 351 354 355 356 349 344 339 333 327 319 305 292 280 270 267 249 235 261 288 294 297 296 309 316 314 300 260 272 278 302 303 269 250 280 248 275 225 264 287 275 258 260 275 270
340 341 342 344 346 345 337 337 332 325 319 305 288 268 256 251 240 237 258 268 280 282 274 288 305 298 233 295 309 316 281 340 269 321 285 167 280 265 286 278 268 268 285 271 267
333 332 333 334 335 338 333 334 332 322 314 302 281 243 257 242 236 238 248 252 268 270 263 272 290 270 284 342 350 6 293 281 311 222 239 222 283 271 270 272 262 267 278 270 257
329 328 327 328 329 330 331 331 328 320 297 325 260 261 230 231 210 243 245 242 251 246 265 224 257 335 22 91 280 279 307 278 262 274 269 280 268 277 270 252 250 260 268 264 256
323 322 321 322 320 323 326 336 334 303 292 261 264 245 200 238 261 253 241 229 231 228 203 162 2 232 237 207 218 229 244 266 275 280 278 261 277 289 295 254 249 254 262 260 251
323 321 319 320 317 316 320 337 329 302 303 293 258 247 241 241 272 235 213 197 179 218 134 6 238 233 228 191 208 221 270 277 285 225 281 312 297 294 298 254 242 248 255 254 258
326 322 319 320 316 308 315 325 330 329 272 286 254 244 217 222 230 222 193 192 191 216 198 200 237 96 176 221 228 233 221 249 262 324 271 327 291 326 289 290 278 265 262 264 257
331 325 323 320 316 310 314 321 330 335 39 276 267 178 185 187 256 210 190 214 209 233 218 233 277 209 204 240 171 275 207 249 277 5 308 24 293 308 325 321 257 314 260 275 268
335 328 324 317 309 302 296 314 328 340 360 271 135 156 205 218 281 181 197 190 209 206 104 259 227 220 230 225 165 236 197 260 277 235 355 341 326 273 327 317 318 327 338 328 328
336 335 331 322 317 291 278 303 321 45 258 347 96 18 338 237 266 126 196 223 249 255 227 250 274 241 219 248 198 347 321 45 60 130 340 231 112 285 280 241 311 306 324 338 333
342 342 345 347 337 0 186 236 40 142 326 325 333 75 175 250 264 178 191 220 219 322 318 312 221 244 187 239 123 120 35 324 346 2 244 164 219 254 275 273 257 296 313 331 333
347 349 8 12 352 262 192 54 157 251 310 349 338 292 232 23 242 226 233 287 219 114 320 254 317 181 183 208 182 173 158 170 268 277 291 121 233 254 233 286 289 305 321 320 330
354 1 20 15 4 274 8 68 228 26 306 328 321 336 329 331 233 327 214 251 292 185 188 209 269 203 191 164 150 160 188 190 281 31 330 251 272 294 294 297 274 319 352 340 335
355 24 19 9 12 86 66 244 13 32 323 320 297 32 332 318 356 330 286 5 331 309 148 283 304 256 171 140 34 180 156 78 24 289 274 274 272 247 287 288 319 331 330 333 329
360 67 10 358 15 57 109 324 335 3 5 4 339 327 325 326 315 285 302 30 347 323 324 334 167 288 325 210 192 148 215 158 158 181 233 298 247 227 249 266 297 295 304 310 308
7 39 360 9 45 32 42 337 360 354 17 3 47 11 336 330 309 276 7 64 10 347 9 300 242 276 244 299 191 178 201 157 154 232 232 213 269 246 256 302 296 286 297 300 291
21 5 19 49 66 7 332 341 51 13 12 6 15 25 1 322 324 31 346 131 17 29 6 334 324 328 332 14 57 251 201 174 125 109 203 219 261 294 287 318 308 291 302 303 299
8 16 21 51 64 52 2 350 335 13 66 360 17 57 357 350 5 313 311 333 343 338 323 298 240 212 244 259 25 284 300 242 204 244 269 244 281 292 295 309 312 309 304 303 299
36 60 10 357 356 356 346 347 3 2 358 10 107 47 8 302 300 278 345 331 335 312 352 30 276 258 263 266 277 275 268 252 242 253 252 281 280 281 296 306 302 299 299 305 300
56 17 2 358 325 347 2 12 27 335 288 13 30 340 315 246 260 300 325 298 231 302 6 347 270 326 286 273 266 272 267 260 253 262 260 263 274 294 320 329 313 310 307 296 291
47 25 11 353 339 337 37 4 329 335 273 282 349 333 297 277 283 282 272 259 252 266 273 264 261 273 273 285 291 274 261 240 249 239 252 266 330 338 340 331 315 308 312 305 298
Height
1547 1546 1544 1543 1542 1541 1540 1538 1537 1536 1535 1533 1531 1529 1527 1525 1523 1521 1519 1519 1516 1514 1513 1512 1511 1510 1510 1511 1512 1513 1516 1514 1510 1508 1501 1500 1500 1498 1497 1493 1490 1487 1483 1482 1478
1548 1546 1544 1542 1540 1539 1537 1536 1535 1534 1533 1531 1529 1527 1526 1524 1521 1520 1520 1517 1515 1514 1513 1511 1510 1510 1510 1510 1512 1514 1517 1510 1504 1501 1499 1498 1498 1496 1495 1490 1486 1483 1480 1478 1476
1548 1546 1545 1542 1540 1537 1536 1534 1532 1530 1529 1528 1527 1526 1524 1523 1521 1519 1518 1516 1515 1513 1512 1511 1511 1510 1510 1510 1511 1511 1511 1506 1501 1499 1497 1495 1492 1493 1490 1485 1484 1480 1476 1474 1474
1549 1547 1545 1542 1539 1537 1534 1532 1530 1528 1526 1525 1524 1523 1522 1522 1524 1517 1516 1515 1514 1512 1511 1511 1511 1510 1511 1511 1510 1510 1503 1503 1497 1495 1494 1492 1489 1486 1483 1479 1476 1473 1472 1469 1469
1550 1548 1545 1541 1538 1535 1533 1531 1528 1526 1524 1522 1520 1520 1520 1520 1517 1515 1515 1514 1513 1512 1511 1510 1510 1510 1510 1510 1509 1506 1500 1497 1495 1492 1489 1488 1483 1481 1476 1470 1467 1467 1465 1464 1465
1550 1547 1545 1541 1538 1534 1531 1529 1526 1524 1521 1519 1518 1517 1518 1518 1512 1512 1513 1513 1512 1511 1510 1510 1509 1509 1509 1508 1508 1502 1498 1493 1488 1485 1485 1482 1476 1476 1464 1463 1461 1460 1458 1458 1459
1549 1547 1544 1541 1538 1534 1531 1527 1524 1521 1518 1516 1515 1515 1515 1513 1510 1510 1510 1510 1510 1510 1510 1510 1509 1509 1508 1506 1503 1500 1498 1489 1484 1483 1481 1478 1472 1469 1459 1460 1456 1453 1452 1453 1454
1549 1546 1543 1540 1537 1533 1529 1526 1522 1518 1516 1514 1512 1512 1510 1508 1507 1508 1509 1508 1508 1509 1509 1509 1508 1507 1506 1504 1500 1500 1499 1493 1481 1481 1478 1478 1467 1460 1458 1456 1453 1450 1448 1448 1448
1548 1545 1542 1539 1535 1532 1528 1523 1519 1516 1514 1512 1511 1511 1506 1504 1504 1506 1507 1507 1507 1507 1507 1507 1507 1506 1505 1505 1504 1503 1499 1496 1486 1478 1478 1476 1463 1451 1452 1451 1448 1444 1442 1441 1443
1546 1543 1540 1537 1533 1530 1526 1522 1517 1514 1513 1511 1509 1512 1505 1502 1502 1503 1504 1505 1506 1505 1506 1506 1506 1506 1506 1505 1504 1505 1501 1497 1490 1479 1476 1471 1458 1445 1443 1445 1441 1438 1436 1435 1436
1543 1540 1537 1534 1530 1526 1524 1520 1519 1515 1511 1507 1503 1500 1500 1501 1501 1501 1502 1503 1504 1504 1505 1504 1507 1504 1497 1499 1497 1498 1500 1496 1483 1477 1476 1463 1453 1440 1434 1435 1433 1432 1431 1430 1430
1540 1537 1534 1531 1528 1524 1522 1520 1519 1519 1506 1496 1495 1495 1497 1497 1498 1498 1500 1502 1501 1503 1503 1506 1503 1491 1493 1494 1497 1498 1497 1489 1478 1474 1473 1460 1448 1436 1432 1429 1426 1426 1425 1426 1427
1536 1533 1530 1527 1523 1521 1519 1518 1516 1514 1511 1493 1491 1491 1492 1494 1495 1495 1497 1497 1498 1500 1501 1502 1490 1489 1490 1491 1494 1494 1492 1486 1482 1474 1469 1463 1444 1438 1431 1429 1425 1423 1423 1424 1423
1533 1529 1525 1522 1522 1518 1518 1516 1514 1511 1520 1496 1492 1491 1492 1492 1493 1493 1495 1498 1497 1497 1497 1497 1488 1487 1489 1489 1489 1490 1481 1481 1479 1479 1480 1472 1463 1444 1434 1426 1425 1423 1420 1421 1420
1529 1525 1521 1517 1517 1516 1517 1514 1514 1513 1541 1492 1491 1492 1492 1494 1493 1492 1493 1493 1494 1494 1497 1488 1485 1487 1488 1483 1483 1480 1477 1478 1477 1479 1482 1475 1477 1440 1436 1427 1422 1420 1421 1421 1418
1526 1521 1517 1515 1513 1513 1514 1513 1514 1528 1533 1495 1491 1491 1492 1491 1491 1492 1493 1494 1492 1492 1491 1486 1483 1484 1480 1478 1479 1479 1479 1480 1483 1481 1477 1471 1471 1445 1436 1427 1423 1418 1418 1419 1416
1523 1518 1515 1513 1514 1513 1512 1514 1528 1539 1494 1495 1492 1489 1490 1490 1489 1491 1492 1493 1491 1491 1487 1483 1480 1477 1477 1478 1478 1479 1484 1484 1484 1486 1465 1471 1472 1442 1429 1427 1426 1422 1416 1416 1415
1522 1517 1516 1514 1513 1512 1512 1516 1528 1507 1502 1499 1495 1492 1492 1490 1489 1490 1491 1491 1486 1488 1492 1495 1482 1474 1474 1473 1473 1479 1481 1490 1484 1478 1473 1472 1466 1437 1425 1424 1421 1419 1415 1413 1412
1520 1517 1515 1515 1514 1514 1516 1534 1522 1515 1514 1508 1499 1495 1494 1491 1492 1490 1490 1488 1485 1487 1490 1491 1480 1471 1471 1471 1472 1478 1481 1479 1479 1491 1487 1461 1450 1432 1421 1418 1417 1416 1414 1412 1411
1519 1516 1516 1515 1514 1516 1519 1522 1518 1519 1515 1508 1506 1501 1501 1499 1495 1492 1489 1500 1493 1486 1486 1484 1487 1470 1470 1471 1473 1472 1474 1480 1487 1481 1471 1461 1454 1440 1423 1416 1415 1416 1414 1411 1409
1520 1517 1519 1515 1515 1517 1527 1526 1523 1521 1519 1517 1513 1510 1507 1505 1500 1496 1491 1505 1498 1491 1487 1485 1489 1477 1472 1472 1470 1476 1475 1476 1480 1480 1470 1469 1447 1426 1422 1416 1417 1414 1412 1410 1407
1519 1521 1520 1515 1518 1525 1529 1529 1528 1524 1521 1519 1517 1518 1517 1513 1505 1496 1499 1503 1505 1499 1500 1492 1492 1491 1475 1466 1467 1468 1470 1473 1474 1471 1479 1476 1440 1414 1415 1416 1417 1414 1410 1406 1403
1523 1524 1523 1517 1531 1534 1532 1529 1528 1526 1526 1525 1524 1523 1522 1521 1515 1507 1505 1504 1504 1505 1507 1499 1494 1495 1474 1468 1467 1467 1468 1469 1473 1476 1471 1468 1429 1412 1414 1415 1413 1412 1406 1401 1399
1529 1532 1529 1528 1537 1537 1538 1536 1532 1530 1529 1529 1529 1526 1527 1525 1519 1516 1512 1505 1505 1504 1502 1498 1495 1488 1482 1473 1480 1475 1468 1468 1469 1472 1460 1442 1428 1417 1412 1419 1411 1405 1401 1397 1393
1535 1545 1547 1547 1542 1542 1540 1539 1536 1535 1531 1530 1530 1534 1535 1531 1523 1516 1515 1514 1508 1504 1499 1500 1492 1488 1482 1480 1479 1472 1468 1468 1466 1458 1461 1435 1436 1427 1420 1418 1411 1404 1396 1392 1388
1544 1548 1547 1547 1547 1544 1541 1543 1541 1540 1538 1533 1533 1534 1534 1534 1527 1523 1521 1520 1514 1505 1503 1501 1495 1490 1473 1474 1470 1460 1452 1454 1451 1447 1446 1445 1430 1430 1426 1420 1410 1402 1396 1389 1385
1549 1550 1549 1549 1548 1546 1546 1545 1543 1543 1536 1534 1534 1534 1529 1525 1522 1520 1516 1511 1506 1503 1505 1505 1498 1492 1474 1466 1464 1455 1435 1436 1434 1440 1439 1439 1438 1431 1424 1419 1409 1396 1394 1388 1384